Location: Ahstedt
(52.2048°N, 10.1060°E)
Time: 00:25:29
(UTC+00:00)

Cosmos 1610 Rocket - Pass Details

Date: 18 January 2026
Orbit: 952 x 1001 km, 82.9° (Epoch: 9 February)

Event Time Altitude Azimuth Distance (km) Brightness Sun altitude
Rises 05:23:19 0° 195° (SSW) 3,616 7.5 -17.1°
Reaches altitude 10° 05:25:49 10° 197° (SSW) 2,675 6.8 -16.7°
Maximum altitude 05:31:55 73° 282° (WNW) 1,001 4.4 -15.8°
Drops below altitude 10° 05:38:06 10° 8° (N) 2,708 6.8 -14.9°
Sets 05:40:39 0° 10° (N) 3,664 7.5 -14.5°
